User: anonymous   Login
Location: ???????
(55.4362°N, 38.1183°E)
Time: 18:35:37
(UTC+00:00)
Language:

Cosmos 2278 Rocket - Orbit

View from above orbital plane
View from above orbital plane
View from above satellite
View from above satellite

Ground track
Ground track

The orbit data is extracted from the following two-line orbital elements,

1 23088U 94023B   21262.72146383  .00000067  00000-0  59814-4 0  9990
2 23088  70.9985 257.1395 0005711 264.1796  95.8676 14.14699237415267
Epoch (UTC): 19 September 2021 17:18:54
Eccentricity: 0.0005711
inclination: 70.9985°
perigee height: 839 km
apogee height: 847 km
right ascension of ascending node: 257.1395°
argument of perigee: 264.1796°
revolutions per day: 14.14699237
mean anomaly at epoch: 95.8676°
orbit number at epoch: 41526

The dashed part of the orbit path shows where the satellite is in the earth's shadow,  

DLR